Location: Wanzleben
(52.0609°N, 11.4408°E)
Time: 02:56:24
(UTC+00:00)

YAOGAN 1 - Pass Details

Date: 18 September 2020
Orbit: 618 x 620 km, 97.9° (Epoch: 22 October)

Event Time Altitude Azimuth Distance (km) Brightness Sun altitude
Rises 18:22:58 0° 186° (S) 2,887 5.9 -10.2°
Reaches altitude 10° 18:25:17 10° 195° (SSW) 1,986 5.2 -10.5°
Maximum altitude 18:29:17 36° 263° (W) 982 4.2 -11.1°
Drops below altitude 10° 18:33:19 10° 331° (NNW) 2,001 5.9 -11.7°
Sets 18:35:40 0° 340° (NNW) 2,912 6.6 -12.1°
